Regional Weather Roundup
Issued by NWS

Home | Current Version | Previous Version | Graphics & Text | Print | Product List | Glossary On
Versions: 1 2 3 4 5 6 7 8 9 10 11 12 13 14 15 16 17 18 19 20 21 22 23 24 25 26 27 28 29 30 31 32 33 34 35 36 37 38 39 40 41 42 43 44 45 46 47 48 49 50
000
ASUS45 KCYS 012010
RWRWY

WYOMING REGIONAL WEATHER ROUNDUP
NATIONAL WEATHER SERVICE CHEYENNE WY
200 PM MDT WED JUL 01 2015

NOTE:  "FAIR" INDICATES FEW OR NO CLOUDS BELOW 12,000 FEET
WITH NO SIGNIFICANT WEATHER AND/OR OBSTRUCTIONS TO VISIBILITY.

WYZ001-012100-
YELLOWSTONE NATIONAL PARK

CITY           SKY/WX    TMP DP  RH WIND       PRES   REMARKS
LK YELLOWSTONE   N/A     78  36  21 VRB7      30.32F
W YELLOWSTONE  NOT AVBL

$$
WYZ002>013-054>058-071-098>099-012100-
NORTHERN WYOMING

CITY           SKY/WX    TMP DP  RH WIND       PRES   REMARKS
JACKSON        FAIR      82  50  32 CALM      30.22F
CODY           FAIR      82  52  34 NW6       30.09F
GREYBULL       FAIR      92  48  22 SE7       29.98F
WORLAND        FAIR      89  49  25 VRB3      30.01F
SHERIDAN       FAIR      87  50  27 VRB3      30.05F
BUFFALO        FAIR      82  50  32 CALM      30.12F
GILLETTE       FAIR      84  54  35 N12G17    30.07F
HULETT         FAIR      81  55  41 NW6       30.09S
NEWCASTLE      FAIR      84  45  24 N13G18    30.06F

$$
WYZ014>020-022>026-101>103-012100-
CENTRAL WYOMING

CITY           SKY/WX    TMP DP  RH WIND       PRES   REMARKS
BIG PINEY      FAIR      85  41  21 W12       30.26F
PINEDALE       FAIR      82  32  16 NW13G20   30.27S
DUBOIS         FAIR      82  41  23 N14G20    30.23F
LANDER         FAIR      87  55  33 VRB5      30.10F
RIVERTON       FAIR      88  43  20 E7        30.10F
CASPER         FAIR      87  49  26 CALM      30.11F
DOUGLAS        FAIR      87  50  27 NE7       30.10F

$$
WYZ021-027>030-104>119-012100-
SOUTHERN WYOMING

CITY           SKY/WX    TMP DP  RH WIND       PRES   REMARKS
EVANSTON       FAIR      86  35  16 VRB6G18   30.29F
KEMMERER       FAIR      84  37  18 W14G20    30.30S
FORT BRIDGER   PTCLDY    86  39  19 NW8       30.30S
ROCK SPRINGS   PTSUNNY   82  49  31 NW12      30.23
DIXON          FAIR      82  51  34 S15       30.25F
RAWLINS        FAIR      82  45  27 W3        30.23F
SARATOGA       FAIR      81  32  17 CALM      30.25F
LARAMIE        FAIR      79  44  28 S7        30.27S
CHEYENNE       FAIR      80  52  37 E7        30.19F
TORRINGTON     FAIR      92  48  22 S9        30.03F
PINE BLUFFS    FAIR      86  48  26 NE7       30.13F

$$


USA.gov is the U.S. government's official web portal to all federal, state and local government web resources and services.